Flight Track Log - Related Links

Times and Time Zones

All times are in EST time to prevent confusion due to time zone crossing. See the AAY875 flight status page for this flight to view local times or setup timezone preferences in your user account.

Time Position Orientation Groundspeed Altitude Reporting Facility
EST Latitude Longitude Course Direction KTS km/h feet Rate Location/Type
Sun 11:53:26 AM 44.7492 -68.7831 218° Southwest 229 425 3.100  Level Boston Center
Sun 11:54:27 AM 44.6911 -68.8472 218° Southwest 256 475 6.800 2.787 Climbing Boston Center
Sun 11:56:29 AM 44.5914 -68.9975 227° Southwest 276 512 11.600 2.361 Climbing Boston Center
Sun 11:57:30 AM 44.5117 -69.1214 228° Southwest 341 631 14.000 2.508 Climbing Boston Center
Sun 11:58:31 AM 44.4383 -69.2256 225° Southwest 366 678 16.700 2.296 Climbing Boston Center
Sun 12:00:46 PM 44.2769 -69.4669 225° Southwest 383 710 21.500 2.082 Climbing Boston Center
Sun 12:01:47 PM 44.2028 -69.5767 227° Southwest 385 713 23.500 1.574 Climbing Boston Center
Sun 12:02:48 PM 44.1264 -69.6889 227° Southwest 394 729 24.700 1.180 Climbing Boston Center
Sun 12:03:49 PM 44.0483 -69.8033 227° Southwest 403 747 25.900 1.672 Climbing Boston Center
Sun 12:04:50 PM 43.9717 -69.9136 226° Southwest 395 732 28.100 1.574 Climbing Boston Center
Sun 12:05:51 PM 43.8994 -70.0186 226° Southwest 378 700 29.100 934 Climbing Boston Center
Sun 12:06:52 PM 43.8289 -70.1272 228° Southwest 376 697 30.000 443 Climbing Boston Center
Sun 12:07:53 PM 43.7600 -70.2258 226° Southwest 357 661 30.000  Level Boston Center
Sun 12:09:55 PM 43.6197 -70.4225 221° Southwest 355 658 30.000  Level Boston Center
Sun 12:11:58 PM 43.4781 -70.6219 225° Southwest 362 671 30.000  Level Boston Center
Sun 12:12:59 PM 43.4100 -70.7203 226° Southwest 354 655 30.000  Level Boston Center
Sun 12:14:00 PM 43.3425 -70.8178 226° Southwest 359 665 30.000  Level Boston Center
Sun 12:15:01 PM 43.2722 -70.9142 225° Southwest 360 666 30.000  Level Boston Center
Sun 12:16:02 PM 43.2039 -71.0097 226° Southwest 354 655 30.000  Level Boston Center
Sun 12:17:03 PM 43.1214 -71.1258 226° Southwest 355 658 30.000  Level Boston Center
Sun 12:18:04 PM 43.0525 -71.2214 225° Southwest 354 655 30.000  Level Boston Center
Sun 12:19:05 PM 42.9833 -71.3183 226° Southwest 357 661 30.000  Level Boston Center
Sun 12:20:05 PM 42.9136 -71.4136 225° Southwest 356 660 30.000  Level Boston Center
Sun 12:21:06 PM 42.8439 -71.5089 225° Southwest 355 658 30.000  Level Boston Center
Sun 12:22:07 PM 42.7808 -71.5967 226° Southwest 357 661 30.000  Level Boston Center
Sun 12:23:08 PM 42.7114 -71.6925 225° Southwest 357 661 30.000  Level Boston Center
Sun 12:24:09 PM 42.6261 -71.8097 225° Southwest 361 668 30.000  Level Boston Center
Sun 12:25:10 PM 42.5553 -71.9056 225° Southwest 360 666 30.000  Level Boston Center
Sun 12:26:11 PM 42.4836 -72.0028 225° Southwest 364 674 30.000  Level Boston Center
Sun 12:27:12 PM 42.4106 -72.1000 225° Southwest 367 679 30.000  Level Boston Center
Sun 12:28:13 PM 42.3386 -72.1975 225° Southwest 366 678 30.000  Level Boston Center
Sun 12:29:14 PM 42.2667 -72.2928 224° Southwest 363 673 30.000  Level Boston Center
Sun 12:30:15 PM 42.1936 -72.3908 225° Southwest 367 679 30.000  Level Boston Center
Sun 12:32:17 PM 42.0483 -72.5825 224° Southwest 364 674 30.000  Level Boston Center
Sun 12:33:18 PM 41.9769 -72.6781 225° Southwest 363 673 30.000  Level Boston Center
Sun 12:34:19 PM 41.9064 -72.7708 224° Southwest 358 663 30.000  Level Boston Center
Sun 12:35:20 PM 41.8361 -72.8631 224° Southwest 354 655 30.000  Level Boston Center
Sun 12:36:21 PM 41.7658 -72.9547 224° Southwest 352 652 30.000  Level Boston Center
Sun 12:37:22 PM 41.6950 -73.0467 224° Southwest 354 655 30.000  Level Boston Center
Sun 12:38:23 PM 41.6239 -73.1400 224° Southwest 357 661 30.000  Level Boston Center
Sun 12:39:24 PM 41.5519 -73.2317 224° Southwest 358 663 30.000  Level Boston Center
Sun 12:40:25 PM 41.4781 -73.3297 225° Southwest 355 658 30.000  Level Boston Center
Sun 12:41:26 PM 41.4067 -73.4200 223° Southwest 355 658 30.000  Level Boston Center
Sun 12:42:27 PM 41.3211 -73.5303 224° Southwest 358 663 30.000  Level Boston Center
Sun 12:43:28 PM 41.2517 -73.6256 226° Southwest 359 665 30.000  Level Boston Center
Sun 12:44:29 PM 41.1925 -73.7294 233° Southwest 357 661 30.000  Level Boston Center
Sun 12:45:30 PM 41.1319 -73.8317 232° Southwest 354 655 30.000  Level Boston Center
Sun 12:46:31 PM 41.0708 -73.9342 232° Southwest 355 658 30.000  Level Boston Center
Sun 12:47:32 PM 41.0106 -74.0356 232° Southwest 354 655 30.000  Level Boston Center
Sun 12:48:33 PM 40.9486 -74.1375 231° Southwest 354 655 30.000  Level Boston Center
Sun 12:49:34 PM 40.8869 -74.2394 231° Southwest 356 660 30.000  Level Boston Center
Sun 12:50:35 PM 40.8250 -74.3417 231° Southwest 358 663 30.000  Level Boston Center
Sun 12:51:37 PM 40.7628 -74.4481 232° Southwest 358 663 30.000  Level Boston Center
Sun 12:52:38 PM 40.6994 -74.5483 230° Southwest 357 661 30.000  Level Boston Center
Sun 12:54:08 PM 40.6003 -74.7144 227° Southwest 359 665 30.000  Level New York Center
Sun 12:55:10 PM 40.5333 -74.8133 228° Southwest 363 673 30.000  Level New York Center
Sun 12:56:12 PM 40.4550 -74.9214 226° Southwest 373 690 30.000  Level New York Center
Sun 12:57:14 PM 40.3811 -75.0264 227° Southwest 368 681 30.000  Level New York Center
Sun 12:58:15 PM 40.3108 -75.1239 227° Southwest 368 681 30.000 195 Level New York Center
Sun 12:59:17 PM 40.2403 -75.2228 227° Southwest 372 689 30.400 484 Climbing New York Center
Sun 01:00:19 PM 40.1714 -75.3203 227° Southwest 372 689 31.000 516 Climbing New York Center
Sun 01:02:23 PM 40.0297 -75.5150 226° Southwest 371 687 32.000 243 Climbing New York Center
Sun 01:04:26 PM 39.8806 -75.7289 228° Southwest 369 684 32.000  Level New York Center
Sun 01:06:30 PM 39.7492 -75.9411 231° Southwest 369 684 32.000  Level New York Center
Sun 01:09:35 PM 39.5472 -76.2619 229° Southwest 369 684 32.000  Level New York Center
Sun 01:10:37 PM 39.4797 -76.3639 229° Southwest 373 690 32.000  Level New York Center
Sun 01:11:39 PM 39.4125 -76.4694 231° Southwest 374 692 32.000  Level New York Center
Sun 01:12:41 PM 39.3436 -76.5753 230° Southwest 380 703 32.000  Level New York Center
Sun 01:14:44 PM 39.2094 -76.7853 229° Southwest 379 702 32.000  Level New York Center
Sun 01:15:46 PM 39.1411 -76.8919 230° Southwest 382 708 32.000  Level New York Center
Sun 01:16:48 PM 39.0589 -77.0189 230° Southwest 382 708 32.000  Level New York Center
Sun 01:17:51 PM 38.9744 -77.1189 223° Southwest 382 708 32.000  Level Washington Center
Sun 01:18:51 PM 38.8919 -77.2106 221° Southwest 392 726 32.000  Level Washington Center
Sun 01:19:50 PM 38.8075 -77.3019 220° Southwest 392 726 32.000  Level Washington Center
Sun 01:20:50 PM 38.7247 -77.3906 220° Southwest 397 735 32.000  Level Washington Center
Sun 01:21:51 PM 38.6422 -77.4789 220° Southwest 397 735 32.000  Level Washington Center
Sun 01:22:51 PM 38.5572 -77.5722 221° Southwest 397 735 32.000  Level Washington Center
Sun 01:23:52 PM 38.4831 -77.6525 220° Southwest 397 735 32.000  Level Washington Center
Sun 01:24:52 PM 38.3981 -77.7428 220° Southwest 397 735 32.000  Level Washington Center
Sun 01:28:51 PM 38.0614 -78.1050 217° Southwest 402 745 32.000  Level Washington Center
Sun 01:29:50 PM 37.9803 -78.1944 221° Southwest 397 735 32.000  Level Washington Center
Sun 01:31:51 PM 37.7928 -78.3694 216° Southwest 402 745 32.000  Level Washington Center
Sun 01:32:52 PM 37.7033 -78.4503 216° Southwest 402 745 32.000  Level Washington Center
Sun 01:33:00 PM 37.7059 -78.4299 217° Southwest  Level FlightAware Approximate
Sun 01:33:52 PM 37.6158 -78.5361 218° Southwest 402 745 32.000  Level Washington Center
Sun 01:34:00 PM 37.6212 -78.5100 217° Southwest  Level FlightAware Approximate
Sun 01:34:49 PM 37.5261 -78.6189 216° Southwest 402 745 32.000  Level Washington Center
Sun 01:35:50 PM 37.4447 -78.6969 217° Southwest 402 745 32.000  Level Washington Center
Sun 01:36:51 PM 37.3550 -78.7767 215° Southwest 402 745 32.000  Level Washington Center
Sun 01:37:50 PM 37.2650 -78.8644 218° Southwest 402 745 32.000  Level Washington Center
Sun 01:38:51 PM 37.1753 -78.9439 215° Southwest 402 745 32.000  Level Washington Center
Sun 01:39:52 PM 37.0853 -79.0286 217° Southwest 402 745 32.000  Level Washington Center
Sun 01:40:50 PM 36.9953 -79.1103 216° Southwest 402 745 32.000  Level Washington Center
Sun 01:41:50 PM 36.8986 -79.2019 217° Southwest 402 745 32.000  Level Washington Center
Sun 01:44:52 PM 36.6303 -79.4458 216° Southwest 402 745 32.000  Level Washington Center
Sun 01:46:35 PM 36.4758 -79.5850 216° Southwest 395 732 32.000  Level Atlanta Center
Sun 01:47:35 PM 36.3869 -79.6647 216° Southwest 395 732 32.000  Level Atlanta Center
Sun 01:50:35 PM 36.1322 -79.8944 198° South 395 732 32.000  Level Atlanta Center
Sun 01:52:35 PM 35.9344 -80.0328 202° Southwest 402 745 32.000  Level Atlanta Center
Sun 01:54:35 PM 35.7064 -80.1439 201° Southwest 424 785 32.000  Level Atlanta Center
Sun 01:55:35 PM 35.6122 -80.1942 203° Southwest 430 797 32.000  Level Atlanta Center
Sun 01:56:00 PM 35.5373 -79.9962 198° South  Level Estimated
Sun 01:56:35 PM 35.5053 -80.2478 202° Southwest 425 787 32.000  Level Atlanta Center
Sun 01:57:35 PM 35.3964 -80.3011 202° Southwest 425 787 32.000  Level Atlanta Center
Sun 01:58:35 PM 35.2814 -80.3625 204° Southwest 425 787 32.000  Level Atlanta Center
Sun 02:00:35 PM 35.0572 -80.4739 201° Southwest 421 779 32.000  Level Atlanta Center
Sun 02:02:46 PM 34.8250 -80.5861 201° Southwest 416 771 32.000  Level Jacksonville Center
Sun 02:04:47 PM 34.6183 -80.6900 198° South 409 758 32.000  Level Jacksonville Center
Sun 02:05:46 PM 34.5086 -80.7458 203° Southwest 414 766 32.000  Level Jacksonville Center
Sun 02:06:47 PM 34.4053 -80.7911 200° South 414 766 32.000  Level Jacksonville Center
Sun 02:07:46 PM 34.2997 -80.8439 202° Southwest 409 758 32.000  Level Jacksonville Center
Sun 02:08:46 PM 34.2003 -80.8914 202° Southwest 404 748 32.000  Level Jacksonville Center
Sun 02:09:46 PM 34.0947 -80.9442 202° Southwest 404 748 32.000  Level Jacksonville Center
Sun 02:11:47 PM 33.8875 -81.0414 203° Southwest 409 758 32.000  Level Jacksonville Center
Sun 02:12:47 PM 33.7839 -81.0908 202° Southwest 409 758 32.000  Level Jacksonville Center
Sun 02:15:47 PM 33.4708 -81.2442 194° South 409 758 32.000  Level Jacksonville Center
Sun 02:17:47 PM 33.2422 -81.3106 193° South 414 766 32.000  Level Jacksonville Center
Sun 02:18:47 PM 33.1297 -81.3447 194° South 420 777 32.000  Level Jacksonville Center
Sun 02:19:47 PM 33.0175 -81.3764 193° South 420 777 32.000  Level Jacksonville Center
Sun 02:20:46 PM 32.9053 -81.4106 194° South 420 777 32.000  Level Jacksonville Center
Sun 02:21:00 PM 32.9612 -81.3849 194° South  Level FlightAware Approximate
Sun 02:21:47 PM 32.7886 -81.4469 195° South 420 777 32.000  Level Jacksonville Center
Sun 02:22:46 PM 32.6783 -81.4783 193° South 420 777 32.000  Level Jacksonville Center
Sun 02:24:46 PM 32.4475 -81.5458 191° South 420 777 32.000  Level Jacksonville Center
Sun 02:26:46 PM 32.2186 -81.6131 194° South 430 797 32.000  Level Jacksonville Center
Sun 02:29:47 PM 31.8750 -81.7133 194° South 430 797 32.000  Level Jacksonville Center
Sun 02:30:47 PM 31.7708 -81.7442 194° South 430 797 32.000  Level Jacksonville Center
Sun 02:31:47 PM 31.6439 -81.7797 193° South 430 797 32.000  Level Jacksonville Center
Sun 02:33:47 PM 31.4231 -81.8433 194° South 429 795 32.000  Level Jacksonville Center
Sun 02:34:47 PM 31.2961 -81.8811 194° South 435 806 32.000  Level Jacksonville Center
Sun 02:35:00 PM 31.3844 -81.8500 194° South  Level FlightAware Approximate
Sun 02:35:47 PM 31.1814 -81.9114 193° South 430 797 32.000  Level Jacksonville Center
Sun 02:36:47 PM 31.0647 -81.9467 195° South 438 811 32.000  Level Jacksonville Center
Sun 02:37:47 PM 30.9461 -81.9817 194° South 433 801 32.000  Level Jacksonville Center
Sun 02:38:47 PM 30.8336 -82.0119 193° South 428 793 32.000  Level Jacksonville Center
Sun 02:40:47 PM 30.6000 -82.0767 193° South 428 793 32.000  Level Jacksonville Center
Sun 02:41:47 PM 30.4875 -82.1067 193° South 428 793 32.000  Level Jacksonville Center
Sun 02:42:47 PM 30.3728 -82.1389 194° South 428 793 32.000  Level Jacksonville Center
Sun 02:43:47 PM 30.2603 -82.1686 193° South 428 793 32.000 -100 Level Jacksonville Center
Sun 02:44:47 PM 30.1478 -82.2008 194° South 423 784 31.800 -650 Descending Jacksonville Center
Sun 02:45:47 PM 30.0311 -82.2353 194° South 430 797 30.700 -1.100 Descending Jacksonville Center
Sun 02:46:47 PM 29.9267 -82.2669 195° South 430 797 29.600 -1.150 Descending Jacksonville Center
Sun 02:47:47 PM 29.8078 -82.2989 193° South 430 797 28.400 -900 Descending Jacksonville Center
Sun 02:50:47 PM 29.4156 -82.3369 175° South 464 859 26.000 -600 Descending Jacksonville Center
Sun 02:51:47 PM 29.2842 -82.3258 176° South 464 859 26.000 -1.200 Level Jacksonville Center
Sun 02:52:47 PM 29.1544 -82.3078 173° South 469 869 23.600 -2.650 Descending Jacksonville Center
Sun 02:53:47 PM 29.0250 -82.2942 175° South 469 869 20.700 -2.850 Descending Jacksonville Center
Sun 02:54:47 PM 28.9039 -82.2783 173° South 463 858 17.900 -3.300 Descending Jacksonville Center
Sun 02:55:47 PM 28.7892 -82.2672 175° South 442 819 14.100 -1.792 Descending Jacksonville Center
Sun 02:56:00 PM 28.9555 -82.2722 175° South  Level FlightAware Approximate
Sun 02:58:28 PM 28.5000 -82.2667 180° South 384 711 11.300  Level Tampa TRACON
Sun 02:59:34 PM 28.4167 -82.3333 215° Southwest 334 618 9.900 -684 Descending Tampa TRACON
Sun 03:00:22 PM 28.4167 -82.4333 270° West 323 599 10.000  Climbing Tampa TRACON
Sun 03:01:22 PM 28.4000 -82.5333 259° West 308 570 9.900 -600 Descending Tampa TRACON
Sun 03:02:22 PM 28.4000 -82.6167 270° West 250 463 8.800 -1.419 Descending Tampa TRACON
Sun 03:04:28 PM 28.3000 -82.7333 226° Southwest 273 505 5.500 -1.567 Descending Tampa TRACON
Sun 03:05:22 PM 28.2333 -82.7667 204° Southwest 261 483 4.100 -783 Descending Tampa TRACON
Sun 03:06:23 PM 28.1667 -82.7833 192° South 261 483 4.000 -333 Descending Tampa TRACON
Sun 03:07:28 PM 28.1000 -82.7667 168° South 274 507 3.400 -500 Descending Tampa TRACON
Sun 03:08:23 PM 28.0167 -82.7667 180° South 273 505 3.000 -400 Descending Tampa TRACON
Sun 03:09:28 PM 27.9500 -82.7667 180° South 251 465 2.600 -167 Descending Tampa TRACON
Sun 03:11:23 PM 27.8333 -82.7500 131° Southeast 201 372 2.500 -485 Descending Tampa TRACON
Sun 03:13:00 PM 27.9000 -82.6833 310° West  Level FlightAware Approximate
Sun 03:13:23 PM 27.8667 -82.6833 310° West 159 295 700  Level Tampa TRACON
Sun 03:15:00 PM 27.9000 -82.6833 310° West  Level FlightAware Approximate
Sun 03:22:00 PM 27.9100 -82.6875 310° West  Level Estimated
Sun 03:23:00 PM 27.9100 -82.6875 310° West  Level Estimated
Sun 03:24:00 PM 27.9100 -82.6875 310° West  Level Estimated
Sun 03:25:00 PM 27.9100 -82.6875 310° West  Level Estimated
Sun 03:26:00 PM 27.9100 -82.6875 310° West  Level Estimated
Sun 03:27:00 PM 27.9100 -82.6875 310° West  Level Estimated
Sun 03:28:00 PM 27.9100 -82.6875 310° West  Level Estimated
Sun 03:29:00 PM 27.9100 -82.6875 310° West  Level Estimated
Sun 03:30:00 PM 27.9100 -82.6875 310° West  Level Estimated

Login

Don't have an account? Register now (free) for customized features, flight alerts, and more!